[[{"header":{"parameterUnit":"m.s-1","parameterCategory":1,"la1":30.2991,"la2":30.254,"lo1":-89.0895,"lo2":-89.0444,"dy":0.0017,"dx":0.0017,"nx":28,"ny":28,"refTime":"2024-04-07T03:00:00:Z","depth":0,"parameterNumber":2,"parameterNumberName":"U-component_of_WINDS"},"data":[0,0,0,0,0,0,0,0,0,0,0,0,0,0,0,0,0,0,0,0,0,0,0,0,0,0,0,0,0,0,0,0,0,0,0,0,0,0,0,0,0,0,0,0,0,0,0,0,0,0,0,0,0,0,0,0,0,0,-1.6271,-1.6271,0,-1.6294,-1.6295,-1.6295,-1.6288,-1.6287,-1.6286,-1.6286,-1.6313,-1.6314,-1.6315,0,0,0,0,0,0,0,0,0,0,0,0,0,-1.6222,-1.6223,-1.6271,-1.6271,-1.6271,-1.6294,-1.6295,-1.6295,-1.6288,-1.6287,-1.6286,-1.6286,-1.6313,-1.6314,-1.6316,0,0,0,0,0,0,0,0,0,0,0,0,0,-1.6244,-1.6223,-1.6271,-1.627,-1.6271,-1.6294,-1.6295,-1.6295,-1.6288,-1.6287,-1.6286,-1.6285,-1.6312,-1.6314,-1.6316,-1.6342,0,0,-1.6321,-1.6322,0,0,0,0,0,0,0,0,-1.6243,-1.6246,-1.627,-1.627,-1.6271,-1.6287,-1.6288,-1.6311,-1.6288,-1.6281,-1.6286,-1.6285,-1.6305,-1.6308,-1.6314,-1.6343,-1.6345,-1.6321,-1.6322,-1.6323,-1.6324,0,0,0,0,0,0,0,-1.6242,-1.6245,-1.628,-1.6271,-1.6271,-1.627,-1.6272,-1.6292,-1.6297,-1.6282,-1.6281,-1.6284,-1.6305,-1.6312,-1.6314,-1.6345,-1.6321,-1.6323,-1.6324,-1.6325,-1.6398,-1.6399,0,0,0,0,0,0,-1.624,-1.6244,-1.628,-1.6281,-1.6255,-1.6272,-1.6274,-1.6283,-1.6297,-1.6299,-1.6285,-1.6284,-1.6309,-1.6312,-1.6315,-1.6347,-1.6323,-1.6325,-1.6326,-1.6397,-1.6398,-1.6399,0,0,0,0,0,0,-1.6238,-1.6243,-1.6279,-1.6262,-1.6267,-1.6273,-1.6283,-1.6284,-1.629,-1.6299,-1.6301,-1.629,-1.6309,-1.6313,-1.6335,-1.6348,-1.6326,-1.6327,-1.6396,-1.6397,-1.6399,-1.6411,0,0,0,0,0,0,-1.6237,-1.6242,-1.6252,-1.6263,-1.6268,-1.6297,-1.6284,-1.6285,-1.6293,-1.6292,-1.6305,-1.6306,-1.6309,-1.6333,-1.6337,-1.635,-1.6329,-1.6395,-1.6397,-1.6398,-1.6409,-1.6413,-1.6415,0,0,0,0,0,-1.6235,-1.6255,-1.6252,-1.6257,-1.6279,-1.6298,-1.6301,-1.6302,-1.6294,-1.6304,-1.631,-1.6306,-1.6346,-1.6335,-1.634,-1.6354,-1.6394,-1.6396,-1.6398,-1.6408,-1.6412,-1.6415,0,0,0,0,0,0,-1.6246,-1.6256,-1.6253,-1.6277,-1.6287,-1.6297,-1.6309,-1.6306,-1.6319,-1.6318,-1.632,-1.6323,-1.6346,-1.6352,-1.634,-1.638,-1.6369,-1.6372,-1.6375,-1.6379,-1.6381,-1.6379,-1.633,0,0,0,0,0,-1.6251,-1.6265,-1.6273,-1.6293,-1.6298,-1.6303,-1.6311,-1.6311,-1.6322,-1.6326,-1.6333,-1.6345,-1.636,-1.637,-1.6384,-1.6411,-1.6414,-1.6423,-1.6425,-1.6428,-1.643,-1.6445,-1.6449,-1.6406,-1.6406,-1.6406,0,0,-1.6262,-1.6269,-1.6278,-1.6295,-1.6303,-1.6318,-1.6306,-1.6322,-1.6333,-1.6329,-1.635,-1.6356,-1.6369,-1.6394,-1.6405,-1.64,-1.6443,-1.643,-1.6432,-1.6433,-1.6447,-1.6451,-1.6455,-1.6407,-1.6407,-1.6406,0,0,-1.6289,-1.6295,-1.6312,-1.632,-1.6331,-1.6335,-1.6339,-1.635,-1.6353,-1.6374,-1.6371,-1.6385,-1.6411,-1.642,-1.6428,-1.6459,-1.6456,-1.6464,-1.6479,-1.6493,-1.6496,-1.6499,-1.651,-1.6514,-1.6467,-1.6467,-1.6467,0,-1.6301,-1.6321,-1.6322,-1.6338,-1.6346,-1.6342,-1.636,-1.6368,-1.6384,-1.639,-1.6383,-1.6416,-1.6424,-1.6451,-1.6458,-1.6465,-1.6471,-1.6462,-1.6496,-1.6499,-1.6502,-1.6512,-1.6516,-1.6468,-1.6467,-1.6467,-1.6467,0,-1.6336,-1.635,-1.6363,-1.6377,-1.6387,-1.6404,-1.6408,-1.6418,-1.6418,-1.6422,-1.6444,-1.6454,-1.647,-1.6477,-1.6477,-1.6504,-1.65,-1.6495,-1.6484,-1.6507,-1.6516,-1.652,-1.6469,-1.6468,-1.6468,-1.6468,0,0,-1.6369,-1.6384,-1.6388,-1.6395,-1.6407,-1.6419,-1.6436,-1.6451,-1.646,-1.6472,-1.6486,-1.6509,-1.6504,-1.6513,-1.6514,-1.6527,-1.655,-1.652,-1.652,-1.6525,-1.6581,-1.6584,-1.6589,-1.6549,-1.655,-1.655,-1.658,0,-1.6397,-1.6426,-1.6427,-1.6454,-1.6467,-1.6464,-1.6479,-1.6489,-1.6494,-1.6507,-1.6513,-1.6528,-1.652,-1.6526,-1.6538,-1.6545,-1.6562,-1.6543,-1.6563,-1.6564,-1.6559,-1.6594,-1.6598,-1.6625,-1.6584,-1.6584,-1.6585,0,-1.6432,-1.6444,-1.6472,-1.6482,-1.6488,-1.6501,-1.6515,-1.6528,-1.6539,-1.6542,-1.6552,-1.6552,-1.6571,-1.6559,-1.6585,-1.6573,-1.6581,-1.6586,-1.6587,-1.6588,-1.6575,-1.6596,-1.6634,-1.6638,-1.6591,-1.659,-1.659,0,-1.6454,-1.6476,-1.6496,-1.6502,-1.6514,-1.6524,-1.653,-1.654,-1.6549,-1.6562,-1.6568,-1.6584,-1.6592,-1.6604,-1.6608,-1.66,-1.6635,-1.6623,-1.6638,-1.6637,-1.6645,-1.6644,-1.6683,-1.6651,-1.6651,-1.6651,-1.6651,0,-1.6484,-1.6501,-1.6505,-1.6517,-1.6537,-1.6539,-1.6558,-1.6564,-1.6573,-1.6587,-1.6586,-1.6599,-1.6604,-1.6618,-1.6622,-1.6643,-1.6647,-1.665,-1.665,-1.665,-1.6649,-1.6655,-1.6653,-1.6652,-1.6652,-1.6651,-1.6651,0,-1.651,-1.6514,-1.6535,-1.6545,-1.6548,-1.6562,-1.6572,-1.6584,-1.6588,-1.6606,-1.661,-1.6617,-1.6634,-1.664,-1.666,-1.6663,-1.6687,-1.6687,-1.6683,-1.6683,-1.6697,-1.6695,-1.6741,-1.6747,-1.6711,-1.6711,-1.6711,0,-1.6529,-1.6542,-1.6554,-1.6562,-1.6568,-1.6582,-1.6591,-1.6594,-1.6604,-1.6618,-1.6628,-1.6645,-1.6658,-1.6685,-1.6693,-1.6709,-1.6708,-1.6723,-1.6711,-1.671,-1.6708,-1.6707,-1.6709,-1.6726,-1.6726,-1.6726,-1.6726,0,-1.6562,-1.6563,-1.6575,-1.6589,-1.6599,-1.661,-1.6621,-1.6628,-1.6633,-1.6644,-1.666,-1.667,-1.6691,-1.6708,-1.6724,-1.6731,-1.673,-1.673,-1.6735,-1.6733,-1.6731,-1.6732,-1.6689,-1.6729,-1.6729,-1.6729,-1.6729,-1.6729,-1.6585,-1.6596,-1.6606,-1.662,-1.6628,-1.6638,-1.665,-1.6655,-1.6669,-1.6685,-1.6686,-1.6704,-1.6716,-1.6738,-1.6746,-1.6761,-1.6757,-1.6763,-1.6764,-1.6765,-1.6766,-1.6729,-1.6764,-1.6764,-1.6764,-1.6764,-1.6764,0,-1.6617,-1.6623,-1.6636,-1.6651,-1.6662,-1.6659,-1.667,-1.668,-1.6696,-1.6706,-1.6719,-1.6739,-1.6755,-1.6764,-1.678,-1.679,-1.679,-1.6795,-1.6794,-1.6795,-1.6769,-1.6764,-1.6794,-1.6794,-1.6794,-1.6794,-1.6794,-1.6794,-1.6636,-1.6654,-1.6657,-1.668,-1.6686,-1.6703,-1.671,-1.6719,-1.6728,-1.6749,-1.6762,-1.6767,-1.6778,-1.6795,-1.681,-1.6812,-1.6818,-1.6823,-1.6825,-1.68,-1.6797,-1.6794,-1.6789,-1.6824,-1.6824,-1.685,-1.685,-1.685]},{"header":{"parameterUnit":"m.s-1","parameterCategory":1,"la1":30.2991,"la2":30.254,"lo1":-89.0895,"lo2":-89.0444,"dy":0.0017,"dx":0.0017,"nx":28,"ny":28,"refTime":"2024-04-07T03:00:00:Z","depth":0,"parameterNumber":3,"parameterNumberName":"V-component_of_WINDS"},"data":[0,0,0,0,0,0,0,0,0,0,0,0,0,0,0,0,0,0,0,0,0,0,0,0,0,0,0,0,0,0,0,0,0,0,0,0,0,0,0,0,0,0,0,0,0,0,0,0,0,0,0,0,0,0,0,0,0,0,3.7054,3.7054,0,3.7026,3.7025,3.7025,3.6947,3.6946,3.6944,3.6942,3.6916,3.6916,3.6917,0,0,0,0,0,0,0,0,0,0,0,0,0,3.7043,3.7044,3.7054,3.7054,3.7053,3.7026,3.7025,3.7025,3.6948,3.6945,3.6943,3.6941,3.6915,3.6916,3.6917,0,0,0,0,0,0,0,0,0,0,0,0,0,3.7035,3.7044,3.7054,3.7011,3.7007,3.7026,3.7025,3.7025,3.6948,3.6945,3.6943,3.6941,3.6915,3.6916,3.6917,3.6976,0,0,3.6921,3.6922,0,0,0,0,0,0,0,0,3.7036,3.7035,3.7018,3.7014,3.701,3.6987,3.7012,3.7009,3.6949,3.6971,3.6942,3.6939,3.6942,3.6941,3.6941,3.6975,3.6974,3.6921,3.6922,3.6923,3.6923,0,0,0,0,0,0,0,3.7036,3.7036,3.7043,3.7018,3.7013,3.6994,3.699,3.7011,3.6971,3.6968,3.6963,3.696,3.6939,3.694,3.694,3.6973,3.6921,3.6923,3.6923,3.6924,3.7054,3.7057,0,0,0,0,0,0,3.7043,3.7037,3.7044,3.7042,3.7017,3.6997,3.6992,3.6997,3.697,3.6964,3.6962,3.6957,3.6939,3.6938,3.6938,3.7005,3.6923,3.6924,3.6925,3.7051,3.7055,3.7058,0,0,0,0,0,0,3.7043,3.7044,3.7045,3.7038,3.7037,3.6999,3.7006,3.6998,3.6999,3.6966,3.6958,3.6971,3.6937,3.6937,3.6967,3.7003,3.6925,3.6926,3.7048,3.7052,3.7056,3.714,0,0,0,0,0,0,3.7043,3.7044,3.7066,3.7039,3.7037,3.7074,3.7008,3.6999,3.7001,3.6993,3.6971,3.6965,3.6935,3.6966,3.6968,3.7004,3.6927,3.7045,3.705,3.7055,3.7134,3.7146,3.7157,0,0,0,0,0,3.7043,3.7091,3.7067,3.7068,3.7063,3.7076,3.7075,3.7038,3.7004,3.7026,3.7004,3.6966,3.6999,3.6969,3.6972,3.7008,3.7042,3.7049,3.7055,3.7129,3.7144,3.7157,0,0,0,0,0,0,3.7123,3.7087,3.706,3.7101,3.7092,3.7063,3.7089,3.7056,3.7057,3.705,3.7005,3.7,3.7037,3.7026,3.6993,3.7064,3.7014,3.7021,3.707,3.7084,3.7096,3.7098,3.6928,0,0,0,0,0,3.7146,3.7159,3.7126,3.7165,3.7162,3.7126,3.7131,3.7103,3.7092,3.7088,3.7069,3.7061,3.707,3.7076,3.7082,3.7132,3.7126,3.7158,3.717,3.7179,3.7186,3.7212,3.7226,3.7077,3.7077,3.7077,0,0,3.7193,3.7174,3.7185,3.7181,3.7171,3.7186,3.7124,3.7142,3.7153,3.7091,3.7119,3.7105,3.7093,3.7133,3.715,3.7125,3.7226,3.7187,3.7195,3.7196,3.722,3.7234,3.7246,3.7082,3.7081,3.708,0,0,3.7286,3.7273,3.7304,3.7295,3.728,3.7256,3.7264,3.724,3.7228,3.7255,3.7209,3.7222,3.7237,3.723,3.7229,3.732,3.7285,3.7323,3.7384,3.741,3.7422,3.7432,3.7465,3.7478,3.733,3.733,3.733,0,3.7346,3.7366,3.7325,3.7346,3.7346,3.729,3.7322,3.7316,3.7304,3.7306,3.7277,3.7296,3.7283,3.7322,3.7344,3.7345,3.7353,3.7326,3.7424,3.7433,3.7442,3.7473,3.7486,3.7335,3.7334,3.7334,3.7333,0,3.7441,3.7455,3.7483,3.7472,3.7475,3.7502,3.7466,3.7474,3.7446,3.7426,3.7454,3.7438,3.7439,3.7446,3.742,3.7482,3.7466,3.7431,3.7381,3.7462,3.749,3.7502,3.7342,3.734,3.7339,3.7337,0,0,3.7584,3.755,3.7561,3.7556,3.7536,3.7547,3.7571,3.7572,3.758,3.7575,3.7595,3.7609,3.7577,3.7575,3.7547,3.757,3.7644,3.7532,3.7531,3.7554,3.7712,3.7739,3.7753,3.7621,3.7623,3.7624,3.7713,0,3.7672,3.7711,3.7675,3.7722,3.7735,3.7682,3.7704,3.7694,3.7676,3.7685,3.7665,3.7676,3.7632,3.7631,3.7651,3.7631,3.7675,3.7624,3.764,3.7641,3.7645,3.7768,3.7796,3.7881,3.7724,3.7726,3.7727,0,3.778,3.7778,3.7826,3.7803,3.7807,3.7827,3.7826,3.7835,3.7824,3.7809,3.7807,3.7773,3.7797,3.7747,3.7779,3.7745,3.775,3.7741,3.7743,3.7744,3.7689,3.7772,3.7907,3.792,3.7744,3.7743,3.7742,0,3.788,3.789,3.792,3.7917,3.7891,3.7906,3.7896,3.7882,3.7885,3.7884,3.7886,3.7888,3.789,3.7892,3.786,3.7827,3.7897,3.7844,3.7886,3.7887,3.7903,3.7903,3.8041,3.7905,3.7905,3.7905,3.7905,0,3.7983,3.8014,3.7965,3.7983,3.8017,3.7976,3.8011,3.7996,3.7984,3.7999,3.7954,3.7969,3.7925,3.7937,3.7912,3.7943,3.7943,3.7933,3.7926,3.7937,3.7939,3.794,3.7933,3.7908,3.7907,3.7907,3.7906,0,3.8101,3.8069,3.8098,3.8071,3.8065,3.8091,3.8068,3.8085,3.8063,3.8083,3.8086,3.8052,3.8063,3.8031,3.8037,3.802,3.8065,3.8049,3.8069,3.8064,3.8108,3.8104,3.8252,3.827,3.8122,3.8124,3.8125,0,3.8168,3.8191,3.8166,3.8173,3.8165,3.8177,3.8179,3.814,3.8145,3.8134,3.8152,3.8159,3.8162,3.8183,3.816,3.8164,3.8148,3.8199,3.8148,3.8159,3.8149,3.8149,3.8151,3.821,3.8212,3.8213,3.8214,0,3.8292,3.8275,3.8281,3.8281,3.8286,3.8284,3.828,3.8288,3.8245,3.8253,3.8264,3.8266,3.8272,3.828,3.828,3.827,3.8236,3.823,3.824,3.8252,3.8264,3.8259,3.8099,3.8227,3.8226,3.8225,3.8224,3.8224,3.8387,3.8406,3.8391,3.8399,3.8391,3.8388,3.8402,3.8382,3.839,3.8391,3.8367,3.8383,3.8371,3.8367,3.8361,3.8373,3.835,3.8364,3.8368,3.8372,3.838,3.8261,3.8373,3.8373,3.8372,3.8372,3.8372,0,3.851,3.8498,3.8505,3.85,3.8506,3.8472,3.8465,3.8473,3.8487,3.8479,3.8483,3.8496,3.8503,3.8481,3.8485,3.8499,3.8484,3.8502,3.8501,3.85,3.84,3.8392,3.8515,3.8515,3.8515,3.8515,3.8515,3.8515,3.8574,3.8603,3.8585,3.861,3.8597,3.8612,3.8611,3.8608,3.8601,3.8617,3.8623,3.8608,3.8594,3.8597,3.8603,3.8596,3.86,3.8624,3.8613,3.852,3.8506,3.8493,3.8485,3.8625,3.8626,3.8711,3.8711,3.8712]}]]